QPF
0.02 0.02 0.02 0.02 0.02 0.02 0.02 0.02 0.02 0.03 0.03 0.02 0.03 0.03 0.02 0.02 0.03 0.03 0.03 0.03 0.04 0.05 0.07 0.07 0.05 0.04 0.03 0.03 0.02 0.01 0.01 0.01 0.01 0.01 0.01 0.02 0.03 0.05 0.07 0.06 0.05 0.03 0.02
0.02 0.02 0.02 0.02 0.02 0.02 0.01 0.01 0.01 0.02 0.02 0.01 0.01 0.01 0.02 0.03 0.04 0.03 0.01 0.01 0.01 0.01 0.03 0.04 0.04 0.04 0.03 0.02 0.01 0.01 0.01 0.01 0.01 0.00 0.01 0.00 0.01 0.01 0.03 0.04 0.03 0.03 0.02
0.03 0.02 0.02 0.03 0.02 0.01 0.01 0.01 0.01 0.01 0.01 0.01 0.01 0.01 0.01 0.02 0.03 0.02 0.02 0.01 0.01 0.01 0.01 0.01 0.02 0.02 0.02 0.01 0.01 0.01 0.01 0.01 0.01 0.01 0.00 0.00 0.01 0.01 0.02 0.02 0.02 0.02 0.01
0.02 0.02 0.02 0.02 0.01 0.01 0.02 0.01 0.02 0.01 0.01 0.01 0.01 0.01 0.01 0.01 0.01 0.02 0.02 0.01 0.01 0.01 0.01 0.01 0.01 0.01 0.01 0.01 0.01 0.01 0.01 0.01 0.01 0.01 0.01 0.01 0.01 0.01 0.02 0.02 0.02 0.02 0.02
0.02 0.02 0.02 0.01 0.01 0.02 0.02 0.02 0.02 0.01 0.01 0.01 0.01 0.01 0.00 0.01 0.01 0.01 0.01 0.01 0.01 0.01 0.01 0.01 0.01 0.01 0.01 0.01 0.01 0.01 0.01 0.01 0.01 0.01 0.01 0.01 0.02 0.02 0.02 0.02 0.03 0.03 0.02
0.03 0.02 0.02 0.02 0.02 0.02 0.01 0.02 0.01 0.01 0.00 0.00 0.00 0.00 0.00 0.01 0.01 0.01 0.00 0.01 0.01 0.01 0.01 0.00 0.00 0.01 0.01 0.01 0.01 0.01 0.01 0.02 0.01 0.02 0.02 0.02 0.02 0.02 0.04 0.04 0.03 0.03 0.02
0.03 0.03 0.03 0.02 0.02 0.02 0.02 0.02 0.01 0.00 0.00 0.00 0.00 0.01 0.01 0.01 0.01 0.01 0.01 0.01 0.01 0.01 0.01 0.00 0.01 0.01 0.01 0.01 0.01 0.01 0.01 0.03 0.03 0.03 0.02 0.02 0.02 0.02 0.04 0.04 0.03 0.03 0.03
0.04 0.05 0.05 0.05 0.04 0.04 0.03 0.02 0.01 0.01 0.01 0.01 0.01 0.01 0.01 0.01 0.01 0.01 0.02 0.01 0.01 0.01 0.01 0.01 0.01 0.02 0.03 0.02 0.02 0.01 0.01 0.01 0.02 0.02 0.01 0.01 0.02 0.03 0.03 0.04 0.04 0.04 0.04
0.06 0.06 0.06 0.06 0.06 0.05 0.03 0.02 0.01 0.01 0.01 0.02 0.02 0.02 0.01 0.01 0.02 0.01 0.02 0.02 0.01 0.01 0.01 0.01 0.02 0.02 0.04 0.04 0.02 0.01 0.01 0.01 0.01 0.01 0.01 0.01 0.02 0.03 0.04 0.04 0.04 0.04 0.04
0.05 0.04 0.04 0.04 0.04 0.03 0.03 0.02 0.02 0.02 0.02 0.02 0.02 0.02 0.01 0.01 0.02 0.01 0.01 0.01 0.01 0.01 0.01 0.01 0.02 0.02 0.02 0.03 0.02 0.02 0.01 0.01 0.01 0.01 0.01 0.01 0.02 0.03 0.03 0.02 0.02 0.03 0.03
0.04 0.04 0.03 0.02 0.02 0.02 0.03 0.02 0.02 0.02 0.02 0.01 0.02 0.01 0.02 0.01 0.01 0.01 0.01 0.01 0.01 0.01 0.01 0.01 0.02 0.02 0.01 0.02 0.03 0.02 0.01 0.01 0.01 0.02 0.02 0.01 0.02 0.02 0.03 0.03 0.03 0.02 0.02
0.02 0.04 0.05 0.04 0.03 0.03 0.03 0.03 0.02 0.02 0.02 0.01 0.01 0.01 0.01 0.01 0.01 0.01 0.01 0.01 0.01 0.01 0.01 0.01 0.01 0.02 0.02 0.02 0.02 0.02 0.02 0.02 0.02 0.02 0.02 0.02 0.02 0.02 0.03 0.03 0.03 0.02 0.02
0.02 0.02 0.03 0.05 0.05 0.04 0.04 0.05 0.04 0.03 0.02 0.01 0.01 0.01 0.01 0.01 0.02 0.02 0.02 0.02 0.02 0.01 0.01 0.01 0.01 0.01 0.01 0.01 0.01 0.01 0.02 0.04 0.04 0.02 0.02 0.02 0.03 0.03 0.02 0.02 0.02 0.03 0.02
0.03 0.03 0.03 0.04 0.05 0.08 0.07 0.06 0.07 0.05 0.04 0.03 0.02 0.02 0.01 0.01 0.02 0.02 0.02 0.01 0.01 0.00 0.00 0.00 0.00 0.00 0.01 0.01 0.01 0.01 0.02 0.03 0.04 0.03 0.02 0.03 0.03 0.02 0.01 0.01 0.01 0.02 0.02
0.02 0.02 0.02 0.02 0.03 0.05 0.08 0.09 0.07 0.05 0.05 0.05 0.04 0.03 0.02 0.02 0.02 0.02 0.01 0.01 0.01 0.01 0.01 0.00 0.00 0.00 0.00 0.01 0.01 0.01 0.01 0.02 0.02 0.03 0.03 0.03 0.03 0.02 0.02 0.01 0.01 0.01 0.01
0.02 0.02 0.02 0.02 0.03 0.04 0.06 0.08 0.09 0.08 0.07 0.06 0.05 0.04 0.02 0.01 0.02 0.02 0.02 0.01 0.01 0.02 0.01 0.00 0.00 0.00 0.01 0.01 0.01 0.01 0.01 0.02 0.02 0.03 0.03 0.04 0.03 0.02 0.01 0.01 0.01 0.02 0.02
0.02 0.02 0.02 0.02 0.02 0.02 0.03 0.05 0.07 0.07 0.07 0.05 0.04 0.04 0.04 0.03 0.03 0.03 0.03 0.03 0.02 0.03 0.02 0.01 0.00 0.00 0.01 0.01 0.01 0.01 0.01 0.02 0.02 0.02 0.02 0.03 0.02 0.02 0.01 0.01 0.01 0.01 0.01
0.02 0.02 0.02 0.02 0.03 0.03 0.03 0.04 0.06 0.07 0.05 0.04 0.03 0.03 0.03 0.03 0.04 0.04 0.04 0.04 0.02 0.01 0.01 0.00 0.00 0.00 0.00 0.00 0.01 0.00 0.01 0.01 0.02 0.01 0.01 0.01 0.01 0.01 0.01 0.02 0.01 0.01 0.01
0.01 0.01 0.02 0.03 0.04 0.03 0.04 0.04 0.04 0.06 0.06 0.05 0.04 0.03 0.03 0.03 0.03 0.03 0.03 0.02 0.01 0.01 0.02 0.01 0.01 0.01 0.00 0.00 0.00 0.01 0.01 0.02 0.01 0.01 0.01 0.01 0.01 0.02 0.02 0.02 0.02 0.02 0.02
0.01 0.02 0.02 0.02 0.02 0.03 0.03 0.03 0.04 0.04 0.06 0.06 0.05 0.04 0.04 0.03 0.02 0.02 0.02 0.01 0.01 0.01 0.01 0.01 0.01 0.01 0.01 0.01 0.01 0.01 0.01 0.02 0.02 0.02 0.02 0.02 0.02 0.02 0.02 0.02 0.02 0.02 0.01
0.01 0.02 0.03 0.05 0.05 0.05 0.04 0.04 0.03 0.03 0.05 0.05 0.04 0.04 0.04 0.03 0.03 0.02 0.02 0.02 0.02 0.02 0.01 0.01 0.01 0.01 0.01 0.01 0.01 0.01 0.01 0.01 0.01 0.02 0.02 0.02 0.02 0.02 0.02 0.02 0.02 0.02 0.02
0.01 0.01 0.03 0.04 0.04 0.04 0.04 0.03 0.03 0.04 0.04 0.03 0.03 0.03 0.04 0.04 0.05 0.04 0.03 0.03 0.03 0.03 0.02 0.01 0.01 0.01 0.01 0.01 0.01 0.01 0.02 0.01 0.02 0.02 0.02 0.02 0.02 0.02 0.02 0.02 0.02 0.02 0.02
0.01 0.01 0.01 0.02 0.02 0.01 0.02 0.02 0.02 0.02 0.02 0.02 0.02 0.02 0.02 0.02 0.03 0.04 0.04 0.03 0.03 0.03 0.03 0.03 0.02 0.02 0.02 0.02 0.02 0.02 0.02 0.02 0.02 0.02 0.03 0.03 0.03 0.02 0.02 0.02 0.02 0.02 0.02
0.01 0.01 0.01 0.02 0.01 0.01 0.01 0.01 0.01 0.01 0.01 0.02 0.03 0.03 0.03 0.02 0.02 0.03 0.04 0.04 0.03 0.03 0.03 0.03 0.02 0.02 0.02 0.02 0.03 0.03 0.03 0.03 0.03 0.03 0.04 0.04 0.04 0.03 0.03 0.03 0.03 0.03 0.03
0.01 0.01 0.02 0.02 0.02 0.02 0.01 0.01 0.01 0.01 0.01 0.02 0.02 0.04 0.05 0.05 0.05 0.05 0.05 0.05 0.04 0.03 0.03 0.03 0.03 0.03 0.03 0.03 0.03 0.04 0.04 0.05 0.04 0.04 0.04 0.04 0.04 0.04 0.04 0.04 0.04 0.04 0.03
0.01 0.02 0.02 0.02 0.03 0.02 0.02 0.01 0.01 0.02 0.02 0.02 0.02 0.03 0.03 0.05 0.07 0.09 0.08 0.08 0.07 0.05 0.04 0.05 0.05 0.04 0.04 0.04 0.03 0.04 0.04 0.04 0.03 0.03 0.03 0.03 0.04 0.06 0.07 0.07 0.05 0.05 0.05
MSLP
1015.53 1015.63 1015.72 1015.76 1015.71 1015.55 1015.31 1015.00 1014.66 1014.31 1013.99 1013.70 1013.44 1013.18 1012.89 1012.57 1012.19 1011.77 1011.31 1010.83 1010.37 1009.94 1009.55 1009.21 1008.91 1008.61 1008.29 1007.94 1007.53 1007.08 1006.59 1006.09 1005.61 1005.20 1004.89 1004.72 1004.69 1004.82 1005.11 1005.54 1006.08 1006.72 1007.41
1015.94 1015.98 1016.01 1015.99 1015.89 1015.71 1015.46 1015.15 1014.83 1014.51 1014.20 1013.93 1013.68 1013.42 1013.14 1012.81 1012.43 1011.99 1011.52 1011.03 1010.55 1010.09 1009.67 1009.30 1008.95 1008.61 1008.25 1007.86 1007.43 1006.95 1006.43 1005.90 1005.40 1004.95 1004.59 1004.36 1004.28 1004.34 1004.57 1004.95 1005.47 1006.11 1006.82
1016.35 1016.34 1016.30 1016.22 1016.08 1015.86 1015.59 1015.29 1014.98 1014.67 1014.40 1014.15 1013.91 1013.66 1013.38 1013.05 1012.66 1012.22 1011.73 1011.22 1010.72 1010.24 1009.79 1009.37 1008.99 1008.60 1008.21 1007.79 1007.32 1006.82 1006.28 1005.73 1005.20 1004.73 1004.34 1004.07 1003.93 1003.96 1004.15 1004.50 1005.00 1005.64 1006.39
1016.73 1016.67 1016.57 1016.43 1016.23 1015.97 1015.68 1015.38 1015.08 1014.80 1014.55 1014.32 1014.10 1013.87 1013.59 1013.25 1012.85 1012.39 1011.89 1011.35 1010.82 1010.31 1009.83 1009.38 1008.95 1008.54 1008.11 1007.66 1007.17 1006.64 1006.08 1005.51 1004.97 1004.48 1004.07 1003.77 1003.62 1003.63 1003.81 1004.15 1004.66 1005.32 1006.10
1017.05 1016.94 1016.79 1016.59 1016.33 1016.04 1015.73 1015.42 1015.13 1014.88 1014.66 1014.45 1014.25 1014.02 1013.74 1013.39 1012.97 1012.48 1011.95 1011.38 1010.82 1010.27 1009.76 1009.27 1008.82 1008.37 1007.91 1007.43 1006.91 1006.37 1005.79 1005.22 1004.66 1004.16 1003.75 1003.45 1003.30 1003.32 1003.51 1003.87 1004.42 1005.11 1005.93
1017.29 1017.15 1016.95 1016.70 1016.40 1016.07 1015.75 1015.44 1015.16 1014.93 1014.73 1014.55 1014.35 1014.12 1013.83 1013.45 1013.00 1012.48 1011.90 1011.30 1010.69 1010.11 1009.56 1009.05 1008.56 1008.08 1007.60 1007.09 1006.56 1005.99 1005.40 1004.82 1004.26 1003.76 1003.35 1003.07 1002.95 1002.99 1003.22 1003.63 1004.22 1004.96 1005.84
1017.48 1017.31 1017.08 1016.78 1016.45 1016.10 1015.77 1015.47 1015.21 1015.00 1014.82 1014.65 1014.46 1014.21 1013.89 1013.49 1012.99 1012.42 1011.79 1011.14 1010.48 1009.86 1009.27 1008.72 1008.20 1007.70 1007.19 1006.67 1006.11 1005.53 1004.93 1004.34 1003.78 1003.29 1002.90 1002.65 1002.57 1002.66 1002.94 1003.40 1004.05 1004.85 1005.77
1017.62 1017.44 1017.18 1016.87 1016.52 1016.16 1015.83 1015.55 1015.31 1015.12 1014.96 1014.80 1014.60 1014.34 1013.99 1013.53 1012.98 1012.35 1011.66 1010.95 1010.25 1009.58 1008.95 1008.37 1007.82 1007.29 1006.75 1006.20 1005.63 1005.03 1004.43 1003.83 1003.28 1002.80 1002.44 1002.23 1002.19 1002.33 1002.67 1003.19 1003.89 1004.74 1005.71
1017.72 1017.54 1017.28 1016.96 1016.62 1016.28 1015.97 1015.71 1015.51 1015.34 1015.19 1015.04 1014.83 1014.54 1014.15 1013.64 1013.03 1012.34 1011.59 1010.83 1010.07 1009.35 1008.68 1008.06 1007.47 1006.91 1006.35 1005.79 1005.19 1004.58 1003.97 1003.37 1002.83 1002.37 1002.04 1001.87 1001.87 1002.06 1002.45 1003.02 1003.77 1004.65 1005.65
1017.80 1017.63 1017.38 1017.08 1016.76 1016.45 1016.18 1015.95 1015.78 1015.64 1015.51 1015.35 1015.13 1014.81 1014.38 1013.83 1013.17 1012.42 1011.62 1010.80 1009.99 1009.23 1008.52 1007.86 1007.24 1006.65 1006.07 1005.48 1004.87 1004.25 1003.63 1003.04 1002.51 1002.07 1001.76 1001.62 1001.66 1001.90 1002.32 1002.93 1003.70 1004.60 1005.60
1017.84 1017.68 1017.46 1017.20 1016.92 1016.65 1016.42 1016.24 1016.10 1015.99 1015.87 1015.71 1015.48 1015.14 1014.67 1014.09 1013.39 1012.60 1011.76 1010.90 1010.06 1009.26 1008.52 1007.83 1007.18 1006.56 1005.95 1005.33 1004.71 1004.08 1003.46 1002.87 1002.36 1001.94 1001.67 1001.55 1001.62 1001.88 1002.33 1002.95 1003.72 1004.61 1005.59
1017.84 1017.71 1017.51 1017.29 1017.05 1016.84 1016.66 1016.52 1016.41 1016.32 1016.21 1016.06 1015.81 1015.45 1014.97 1014.36 1013.64 1012.84 1011.98 1011.11 1010.26 1009.44 1008.67 1007.96 1007.29 1006.64 1006.01 1005.38 1004.74 1004.11 1003.49 1002.92 1002.42 1002.02 1001.77 1001.68 1001.76 1002.03 1002.48 1003.09 1003.84 1004.69 1005.63
1017.79 1017.67 1017.51 1017.33 1017.14 1016.97 1016.84 1016.73 1016.65 1016.58 1016.48 1016.32 1016.07 1015.71 1015.22 1014.61 1013.90 1013.11 1012.26 1011.40 1010.55 1009.74 1008.97 1008.25 1007.56 1006.90 1006.25 1005.61 1004.96 1004.33 1003.72 1003.16 1002.68 1002.30 1002.07 1001.99 1002.08 1002.35 1002.78 1003.35 1004.06 1004.87 1005.74
1017.69 1017.59 1017.46 1017.31 1017.16 1017.03 1016.93 1016.85 1016.79 1016.72 1016.62 1016.46 1016.21 1015.85 1015.38 1014.79 1014.11 1013.36 1012.55 1011.73 1010.92 1010.13 1009.38 1008.66 1007.97 1007.31 1006.65 1006.00 1005.36 1004.73 1004.13 1003.59 1003.12 1002.76 1002.54 1002.47 1002.55 1002.80 1003.19 1003.72 1004.37 1005.11 1005.91
1017.54 1017.46 1017.35 1017.23 1017.12 1017.02 1016.94 1016.88 1016.82 1016.75 1016.64 1016.47 1016.23 1015.88 1015.44 1014.90 1014.27 1013.58 1012.84 1012.08 1011.32 1010.58 1009.86 1009.16 1008.49 1007.83 1007.18 1006.53 1005.89 1005.28 1004.69 1004.17 1003.72 1003.37 1003.15 1003.07 1003.14 1003.35 1003.69 1004.16 1004.74 1005.40 1006.13
1017.37 1017.30 1017.22 1017.13 1017.04 1016.96 1016.90 1016.84 1016.77 1016.69 1016.58 1016.41 1016.16 1015.84 1015.43 1014.95 1014.38 1013.77 1013.11 1012.43 1011.74 1011.06 1010.39 1009.73 1009.09 1008.45 1007.81 1007.18 1006.55 1005.95 1005.38 1004.87 1004.43 1004.09 1003.86 1003.76 1003.79 1003.95 1004.24 1004.64 1005.14 1005.72 1006.37
1017.19 1017.15 1017.09 1017.03 1016.97 1016.91 1016.85 1016.79 1016.72 1016.63 1016.50 1016.32 1016.09 1015.79 1015.42 1014.99 1014.50 1013.97 1013.39 1012.80 1012.19 1011.58 1010.97 1010.36 1009.74 1009.13 1008.52 1007.91 1007.30 1006.71 1006.16 1005.66 1005.22 1004.87 1004.63 1004.49 1004.47 1004.58 1004.80 1005.12 1005.55 1006.05 1006.62
1017.02 1017.00 1016.98 1016.95 1016.92 1016.88 1016.84 1016.78 1016.70 1016.60 1016.46 1016.28 1016.06 1015.78 1015.45 1015.08 1014.66 1014.20 1013.71 1013.20 1012.67 1012.13 1011.58 1011.01 1010.44 1009.86 1009.28 1008.69 1008.11 1007.54 1007.00 1006.50 1006.06 1005.69 1005.41 1005.23 1005.16 1005.19 1005.34 1005.58 1005.93 1006.35 1006.86
1016.85 1016.87 1016.89 1016.90 1016.90 1016.89 1016.86 1016.81 1016.73 1016.63 1016.49 1016.31 1016.10 1015.85 1015.56 1015.24 1014.88 1014.49 1014.08 1013.64 1013.18 1012.70 1012.20 1011.68 1011.15 1010.60 1010.05 1009.49 1008.93 1008.38 1007.85 1007.35 1006.90 1006.51 1006.19 1005.95 1005.81 1005.77 1005.83 1006.00 1006.26 1006.62 1007.07
1016.66 1016.72 1016.79 1016.84 1016.89 1016.91 1016.90 1016.86 1016.80 1016.70 1016.56 1016.40 1016.20 1015.98 1015.73 1015.46 1015.15 1014.83 1014.47 1014.09 1013.68 1013.25 1012.80 1012.32 1011.83 1011.31 1010.79 1010.25 1009.71 1009.18 1008.66 1008.16 1007.69 1007.27 1006.90 1006.61 1006.40 1006.28 1006.26 1006.35 1006.54 1006.84 1007.23
1016.43 1016.54 1016.64 1016.74 1016.82 1016.87 1016.89 1016.88 1016.83 1016.75 1016.63 1016.49 1016.32 1016.13 1015.92 1015.69 1015.43 1015.15 1014.85 1014.51 1014.15 1013.75 1013.34 1012.89 1012.43 1011.94 1011.44 1010.93 1010.41 1009.89 1009.37 1008.87 1008.39 1007.93 1007.52 1007.17 1006.89 1006.70 1006.61 1006.62 1006.75 1006.99 1007.33
1016.13 1016.27 1016.42 1016.55 1016.65 1016.73 1016.78 1016.79 1016.76 1016.70 1016.61 1016.50 1016.37 1016.22 1016.05 1015.86 1015.66 1015.42 1015.15 1014.86 1014.53 1014.16 1013.77 1013.35 1012.90 1012.43 1011.95 1011.46 1010.96 1010.45 1009.94 1009.43 1008.93 1008.46 1008.01 1007.61 1007.27 1007.02 1006.86 1006.81 1006.87 1007.06 1007.36
1015.76 1015.91 1016.07 1016.22 1016.34 1016.43 1016.49 1016.52 1016.52 1016.49 1016.43 1016.36 1016.28 1016.18 1016.06 1015.93 1015.77 1015.58 1015.35 1015.09 1014.78 1014.44 1014.06 1013.65 1013.22 1012.76 1012.30 1011.82 1011.33 1010.83 1010.32 1009.82 1009.31 1008.82 1008.35 1007.91 1007.53 1007.23 1007.02 1006.92 1006.93 1007.07 1007.33
1015.31 1015.46 1015.61 1015.75 1015.86 1015.96 1016.02 1016.06 1016.08 1016.07 1016.06 1016.04 1016.01 1015.97 1015.92 1015.85 1015.75 1015.61 1015.43 1015.19 1014.91 1014.59 1014.22 1013.82 1013.39 1012.95 1012.48 1012.01 1011.53 1011.04 1010.54 1010.04 1009.53 1009.03 1008.55 1008.10 1007.69 1007.36 1007.12 1006.98 1006.96 1007.06 1007.28
1014.80 1014.93 1015.05 1015.16 1015.26 1015.33 1015.39 1015.43 1015.46 1015.49 1015.51 1015.55 1015.58 1015.62 1015.64 1015.64 1015.60 1015.52 1015.39 1015.20 1014.95 1014.64 1014.29 1013.89 1013.47 1013.02 1012.56 1012.09 1011.61 1011.12 1010.63 1010.14 1009.64 1009.15 1008.67 1008.21 1007.81 1007.47 1007.21 1007.05 1007.00 1007.07 1007.25
1014.26 1014.35 1014.44 1014.51 1014.57 1014.61 1014.64 1014.67 1014.71 1014.77 1014.84 1014.93 1015.04 1015.15 1015.25 1015.33 1015.37 1015.36 1015.29 1015.15 1014.93 1014.65 1014.31 1013.92 1013.50 1013.05 1012.59 1012.11 1011.64 1011.16 1010.68 1010.20 1009.72 1009.24 1008.78 1008.34 1007.95 1007.61 1007.35 1007.19 1007.12 1007.17 1007.32
Thickness
5773 5771 5768 5765 5763 5760 5758 5756 5754 5752 5750 5747 5745 5743 5741 5739 5737 5734 5731 5729 5727 5724 5722 5721 5718 5716 5714 5712 5710 5707 5704 5701 5697 5697 5697 5698 5697 5696 5696 5694 5693 5693 5692
5773 5770 5767 5764 5762 5759 5757 5755 5753 5750 5748 5746 5743 5740 5738 5736 5734 5731 5729 5726 5723 5720 5718 5717 5715 5713 5710 5708 5706 5703 5701 5699 5696 5693 5693 5692 5692 5691 5690 5689 5688 5687 5685
5772 5769 5766 5763 5760 5758 5755 5753 5751 5748 5746 5744 5741 5738 5735 5733 5730 5728 5725 5723 5720 5718 5715 5713 5711 5709 5706 5704 5702 5700 5697 5696 5693 5690 5688 5687 5686 5685 5684 5683 5682 5680 5680
5771 5768 5765 5762 5760 5757 5754 5751 5749 5746 5743 5741 5738 5735 5733 5730 5728 5725 5722 5719 5717 5714 5712 5710 5708 5706 5703 5701 5698 5695 5693 5690 5688 5685 5683 5682 5680 5679 5678 5677 5676 5675 5674
5768 5765 5763 5762 5759 5755 5752 5749 5747 5744 5741 5738 5736 5733 5730 5728 5725 5722 5719 5716 5713 5710 5708 5706 5704 5702 5700 5698 5695 5692 5689 5685 5683 5680 5678 5677 5675 5673 5672 5671 5670 5670 5669
5765 5763 5761 5759 5756 5753 5750 5747 5743 5741 5738 5735 5732 5729 5727 5725 5723 5720 5717 5713 5709 5706 5703 5701 5700 5698 5696 5694 5691 5689 5686 5682 5679 5676 5674 5672 5671 5669 5668 5666 5664 5663 5662
5762 5759 5757 5755 5752 5750 5747 5743 5740 5737 5734 5730 5728 5725 5723 5721 5719 5716 5712 5708 5705 5702 5700 5697 5696 5694 5691 5688 5687 5685 5682 5680 5677 5674 5671 5669 5667 5666 5664 5662 5659 5657 5655
5759 5756 5753 5751 5748 5746 5743 5740 5737 5734 5731 5727 5724 5721 5719 5717 5714 5711 5708 5704 5701 5698 5696 5693 5691 5688 5686 5683 5682 5679 5677 5675 5672 5670 5668 5666 5665 5663 5660 5657 5654 5651 5650
5752 5750 5750 5746 5743 5741 5738 5735 5732 5729 5726 5723 5720 5717 5714 5712 5709 5706 5702 5698 5695 5693 5691 5689 5686 5684 5682 5678 5676 5673 5672 5670 5668 5666 5664 5662 5660 5658 5655 5652 5648 5646 5645
5746 5745 5743 5741 5739 5736 5733 5731 5728 5725 5722 5719 5715 5712 5709 5706 5704 5701 5697 5693 5689 5687 5685 5684 5682 5679 5676 5673 5670 5668 5665 5664 5663 5661 5658 5657 5654 5652 5649 5646 5644 5641 5639
5741 5739 5736 5735 5733 5731 5728 5725 5723 5719 5716 5712 5709 5706 5703 5701 5698 5695 5692 5688 5685 5682 5680 5679 5677 5674 5671 5668 5664 5662 5660 5659 5656 5654 5653 5651 5649 5646 5644 5641 5638 5636 5634
5733 5731 5729 5727 5726 5725 5721 5719 5716 5712 5708 5705 5702 5699 5697 5694 5692 5690 5687 5683 5680 5678 5676 5674 5672 5668 5665 5662 5659 5657 5655 5652 5650 5648 5646 5645 5643 5641 5638 5636 5633 5631 5629
5724 5723 5721 5721 5718 5717 5714 5711 5709 5705 5702 5699 5695 5693 5691 5688 5686 5684 5681 5677 5675 5672 5671 5669 5666 5663 5659 5656 5654 5651 5649 5646 5644 5641 5640 5638 5636 5634 5632 5630 5628 5625 5623
5715 5714 5713 5712 5710 5708 5707 5705 5702 5698 5695 5693 5690 5687 5684 5681 5679 5678 5674 5671 5669 5666 5664 5662 5659 5656 5653 5651 5648 5645 5642 5640 5638 5636 5634 5632 5630 5628 5626 5624 5621 5619 5617
5706 5705 5704 5703 5702 5700 5698 5697 5695 5693 5690 5687 5685 5682 5679 5676 5675 5672 5668 5666 5664 5661 5657 5655 5652 5650 5647 5644 5641 5638 5636 5633 5631 5629 5627 5625 5623 5621 5619 5617 5614 5612 5610
5698 5697 5696 5694 5693 5691 5690 5688 5687 5685 5683 5680 5678 5675 5673 5671 5669 5666 5662 5660 5657 5654 5651 5649 5647 5644 5642 5639 5636 5633 5630 5628 5625 5623 5621 5619 5617 5615 5613 5610 5608 5605 5604
5691 5689 5688 5686 5685 5683 5682 5679 5678 5677 5675 5672 5670 5668 5666 5664 5662 5659 5655 5652 5649 5647 5645 5644 5641 5639 5637 5634 5631 5629 5626 5623 5620 5617 5615 5613 5611 5609 5607 5605 5602 5600 5598
5683 5682 5680 5678 5677 5675 5673 5671 5669 5668 5666 5665 5663 5661 5659 5657 5655 5652 5649 5645 5643 5641 5640 5639 5637 5635 5632 5629 5627 5624 5621 5618 5615 5613 5611 5608 5606 5604 5602 5599 5597 5594 5593
5675 5674 5672 5670 5669 5667 5665 5663 5661 5660 5658 5657 5655 5653 5651 5649 5647 5645 5642 5641 5640 5638 5636 5634 5632 5630 5628 5625 5623 5620 5617 5614 5611 5608 5606 5603 5601 5599 5597 5595 5592 5588 5586
5667 5666 5664 5662 5660 5659 5657 5656 5654 5652 5650 5649 5648 5647 5644 5642 5641 5639 5636 5636 5636 5635 5633 5630 5629 5626 5624 5622 5619 5616 5614 5611 5608 5605 5602 5600 5597 5594 5592 5589 5587 5584 5582
5659 5658 5656 5654 5652 5651 5649 5647 5646 5644 5643 5642 5641 5641 5638 5637 5637 5635 5633 5631 5630 5630 5628 5626 5625 5623 5621 5618 5615 5613 5610 5608 5605 5602 5599 5596 5593 5590 5588 5585 5582 5580 5577
5652 5650 5648 5646 5644 5642 5641 5640 5638 5637 5636 5635 5635 5634 5631 5631 5631 5630 5629 5628 5627 5626 5624 5622 5620 5619 5617 5614 5611 5609 5606 5603 5600 5596 5594 5591 5588 5585 5583 5580 5577 5575 5573
5643 5642 5640 5638 5637 5635 5633 5633 5631 5630 5629 5629 5628 5627 5626 5625 5625 5624 5624 5623 5621 5620 5619 5617 5615 5614 5612 5610 5607 5604 5601 5599 5595 5592 5588 5585 5582 5579 5577 5575 5572 5569 5568
5635 5633 5632 5630 5629 5627 5626 5626 5625 5624 5624 5624 5622 5621 5621 5620 5620 5619 5618 5617 5616 5614 5613 5612 5610 5609 5607 5604 5602 5600 5597 5594 5590 5587 5583 5580 5577 5574 5572 5569 5566 5564 5562
5627 5626 5624 5623 5621 5620 5620 5619 5618 5617 5617 5617 5616 5616 5616 5615 5614 5613 5612 5611 5610 5608 5607 5605 5603 5602 5601 5598 5596 5594 5591 5588 5585 5581 5578 5575 5572 5569 5567 5564 5561 5558 5556
5620 5619 5618 5616 5615 5614 5613 5613 5612 5612 5611 5611 5611 5611 5610 5610 5609 5608 5606 5605 5604 5603 5601 5599 5598 5596 5595 5592 5590 5587 5584 5581 5578 5575 5572 5570 5567 5564 5561 5559 5556 5553 5550